[[{"header":{"parameterUnit":"m.s-1","parameterCategory":1,"la1":30.2991,"la2":30.254,"lo1":-89.0895,"lo2":-89.0444,"dy":0.0017,"dx":0.0017,"nx":28,"ny":28,"refTime":"2025-06-17T03:00:00:Z","depth":0,"parameterNumber":2,"parameterNumberName":"U-component_of_WINDS"},"data":[0,0,0,0,0,0,0,0,0,0,0,0,0,0,0,0,0,0,0,0,0,0,0,0,0,0,0,0,0,0,0,0,0,0,0,0,0,0,0,0,0,0,0,0,0,0,0,0,0,0,0,0,0,0,0,0,0,0,-0.5275,-0.5276,0,-0.5377,-0.5378,-0.5379,-0.542,-0.542,-0.542,-0.542,-0.5524,-0.5527,-0.553,0,0,0,0,0,0,0,0,0,0,0,0,0,-0.5118,-0.5121,-0.5275,-0.5276,-0.5278,-0.5377,-0.5378,-0.5379,-0.5421,-0.542,-0.542,-0.542,-0.5523,-0.5527,-0.5531,0,0,0,0,0,0,0,0,0,0,0,0,0,-0.52,-0.5122,-0.5275,-0.531,-0.5314,-0.5376,-0.5378,-0.538,-0.5421,-0.542,-0.542,-0.542,-0.5522,-0.5527,-0.5531,-0.5566,0,0,-0.5545,-0.5547,0,0,0,0,0,0,0,0,-0.5195,-0.5206,-0.5304,-0.5308,-0.5313,-0.5386,-0.5361,-0.5442,-0.5421,-0.538,-0.542,-0.5419,-0.5479,-0.5487,-0.5507,-0.5571,-0.5575,-0.5545,-0.5548,-0.555,-0.5551,0,0,0,0,0,0,0,-0.5189,-0.5201,-0.5315,-0.5305,-0.531,-0.5321,-0.5333,-0.5377,-0.543,-0.5384,-0.5387,-0.5398,-0.5481,-0.5502,-0.5509,-0.5577,-0.5545,-0.5549,-0.5552,-0.5554,-0.5677,-0.5678,0,0,0,0,0,0,-0.5178,-0.5196,-0.5312,-0.5318,-0.5252,-0.5325,-0.5337,-0.5363,-0.543,-0.544,-0.5399,-0.54,-0.5495,-0.5504,-0.5513,-0.5559,-0.555,-0.5554,-0.5557,-0.5677,-0.5677,-0.5678,0,0,0,0,0,0,-0.5174,-0.5188,-0.5308,-0.5258,-0.5275,-0.5328,-0.5356,-0.5365,-0.5386,-0.5441,-0.5451,-0.541,-0.5495,-0.5507,-0.5553,-0.5563,-0.5556,-0.556,-0.5676,-0.5677,-0.5678,-0.5651,0,0,0,0,0,0,-0.517,-0.5186,-0.5199,-0.5258,-0.5277,-0.5345,-0.5357,-0.5367,-0.5393,-0.5396,-0.5455,-0.5464,-0.5495,-0.5546,-0.5557,-0.557,-0.5564,-0.5675,-0.5676,-0.5677,-0.5651,-0.5651,-0.5651,0,0,0,0,0,-0.5164,-0.5188,-0.52,-0.5214,-0.5295,-0.5346,-0.5357,-0.5392,-0.5394,-0.5408,-0.5444,-0.5462,-0.5561,-0.555,-0.5564,-0.5577,-0.5675,-0.5676,-0.5677,-0.5651,-0.5651,-0.5651,0,0,0,0,0,0,-0.5128,-0.5196,-0.521,-0.5254,-0.5294,-0.5353,-0.5371,-0.539,-0.5431,-0.5431,-0.5474,-0.5487,-0.553,-0.5558,-0.5546,-0.5616,-0.5619,-0.5623,-0.5595,-0.5595,-0.5595,-0.5587,-0.5568,0,0,0,0,0,-0.5125,-0.5161,-0.5218,-0.5251,-0.5271,-0.5318,-0.5341,-0.5365,-0.5409,-0.5426,-0.5465,-0.5506,-0.5547,-0.5573,-0.5613,-0.5656,-0.567,-0.5672,-0.5672,-0.5671,-0.5674,-0.57,-0.5702,-0.5682,-0.5682,-0.5682,0,0,-0.512,-0.5161,-0.5181,-0.5245,-0.5279,-0.5316,-0.5331,-0.5369,-0.5397,-0.5432,-0.5478,-0.5508,-0.5558,-0.5602,-0.5624,-0.5627,-0.5683,-0.5673,-0.5672,-0.5675,-0.5702,-0.5704,-0.5705,-0.5683,-0.5683,-0.5683,0,0,-0.5128,-0.5163,-0.5195,-0.5229,-0.528,-0.5311,-0.5319,-0.5376,-0.5397,-0.5444,-0.5472,-0.5506,-0.5574,-0.5609,-0.5635,-0.566,-0.5678,-0.5672,-0.567,-0.5695,-0.5696,-0.5698,-0.5707,-0.571,-0.5674,-0.5674,-0.5674,0,-0.5115,-0.517,-0.5208,-0.5245,-0.5273,-0.5307,-0.534,-0.5371,-0.5433,-0.5452,-0.5455,-0.5543,-0.5579,-0.5633,-0.5639,-0.5659,-0.567,-0.5665,-0.5693,-0.5695,-0.5697,-0.5706,-0.5709,-0.5673,-0.5673,-0.5673,-0.5674,0,-0.5152,-0.519,-0.521,-0.5269,-0.5299,-0.5334,-0.5378,-0.5404,-0.5427,-0.5458,-0.5506,-0.5551,-0.5601,-0.5616,-0.5638,-0.5674,-0.5674,-0.5685,-0.5689,-0.5697,-0.5707,-0.571,-0.5672,-0.5672,-0.5672,-0.5673,0,0,-0.5139,-0.522,-0.5227,-0.5255,-0.5315,-0.5345,-0.5382,-0.5432,-0.5454,-0.5496,-0.5529,-0.5587,-0.5598,-0.5628,-0.5654,-0.5676,-0.5693,-0.5684,-0.5686,-0.5684,-0.5737,-0.5728,-0.5732,-0.5707,-0.5707,-0.5708,-0.5733,0,-0.5155,-0.5222,-0.5259,-0.5311,-0.5347,-0.5381,-0.5413,-0.5454,-0.5485,-0.5521,-0.5556,-0.5597,-0.5607,-0.5626,-0.5649,-0.5686,-0.5704,-0.5685,-0.5738,-0.5739,-0.5723,-0.5737,-0.5727,-0.5749,-0.5737,-0.5737,-0.5738,0,-0.5183,-0.5225,-0.5281,-0.5338,-0.5355,-0.5383,-0.5433,-0.5467,-0.5514,-0.5536,-0.557,-0.5596,-0.5638,-0.564,-0.5698,-0.5684,-0.5708,-0.573,-0.5732,-0.5737,-0.5738,-0.5743,-0.5756,-0.5759,-0.5744,-0.5743,-0.5743,0,-0.5169,-0.5239,-0.5282,-0.5305,-0.5373,-0.5392,-0.5422,-0.5469,-0.5497,-0.554,-0.5559,-0.5607,-0.5633,-0.567,-0.5709,-0.5706,-0.5763,-0.5768,-0.5782,-0.5781,-0.5792,-0.5791,-0.5809,-0.5808,-0.5808,-0.5808,-0.5808,0,-0.5183,-0.5216,-0.5277,-0.5303,-0.5341,-0.5383,-0.542,-0.5452,-0.5495,-0.5528,-0.5561,-0.5592,-0.5642,-0.5679,-0.571,-0.5754,-0.5766,-0.5785,-0.5792,-0.5781,-0.5779,-0.5797,-0.5797,-0.5809,-0.5809,-0.5808,-0.5808,0,-0.5173,-0.5215,-0.5264,-0.5325,-0.5341,-0.5366,-0.5419,-0.5446,-0.5479,-0.5522,-0.5534,-0.5586,-0.5632,-0.5675,-0.5737,-0.5758,-0.5802,-0.5812,-0.5786,-0.579,-0.5802,-0.58,-0.5832,-0.5839,-0.5833,-0.5833,-0.5833,0,-0.5179,-0.5206,-0.5269,-0.5294,-0.5323,-0.5363,-0.5392,-0.5435,-0.5464,-0.5521,-0.5542,-0.5591,-0.5632,-0.5704,-0.5748,-0.5796,-0.5807,-0.5815,-0.5814,-0.5803,-0.5807,-0.5805,-0.5808,-0.5814,-0.5814,-0.5814,-0.5814,0,-0.5186,-0.5206,-0.5247,-0.5295,-0.5328,-0.5368,-0.5409,-0.5428,-0.5479,-0.5511,-0.5558,-0.559,-0.5654,-0.5702,-0.5755,-0.5786,-0.5809,-0.5814,-0.582,-0.5809,-0.5792,-0.5801,-0.5784,-0.5813,-0.5813,-0.5813,-0.5813,-0.5813,-0.5185,-0.521,-0.5259,-0.5304,-0.5339,-0.5377,-0.5406,-0.5443,-0.5484,-0.5538,-0.5562,-0.561,-0.5659,-0.5733,-0.5764,-0.5803,-0.5808,-0.5816,-0.5818,-0.582,-0.5818,-0.5786,-0.5813,-0.5813,-0.5813,-0.5813,-0.5813,0,-0.5194,-0.5228,-0.5268,-0.5325,-0.536,-0.5379,-0.5425,-0.5454,-0.5496,-0.5539,-0.5579,-0.5635,-0.5682,-0.573,-0.5781,-0.5803,-0.5815,-0.5815,-0.5813,-0.582,-0.581,-0.58,-0.5804,-0.5804,-0.5804,-0.5804,-0.5804,-0.5804,-0.5203,-0.5246,-0.5272,-0.5335,-0.5369,-0.5416,-0.5441,-0.5477,-0.5512,-0.5572,-0.5612,-0.5643,-0.5689,-0.5743,-0.5788,-0.5801,-0.5818,-0.5815,-0.5831,-0.582,-0.5821,-0.5821,-0.5812,-0.5818,-0.5818,-0.5838,-0.5838,-0.5838]},{"header":{"parameterUnit":"m.s-1","parameterCategory":1,"la1":30.2991,"la2":30.254,"lo1":-89.0895,"lo2":-89.0444,"dy":0.0017,"dx":0.0017,"nx":28,"ny":28,"refTime":"2025-06-17T03:00:00:Z","depth":0,"parameterNumber":3,"parameterNumberName":"V-component_of_WINDS"},"data":[0,0,0,0,0,0,0,0,0,0,0,0,0,0,0,0,0,0,0,0,0,0,0,0,0,0,0,0,0,0,0,0,0,0,0,0,0,0,0,0,0,0,0,0,0,0,0,0,0,0,0,0,0,0,0,0,0,0,2.054,2.054,0,2.0592,2.0593,2.0593,2.0643,2.0643,2.0644,2.0645,2.0696,2.0697,2.0698,0,0,0,0,0,0,0,0,0,0,0,0,0,2.0483,2.0484,2.054,2.054,2.0541,2.0592,2.0593,2.0593,2.0643,2.0643,2.0644,2.0645,2.0696,2.0697,2.0698,0,0,0,0,0,0,0,0,0,0,0,0,0,2.0519,2.0484,2.0539,2.0572,2.0575,2.0592,2.0593,2.0593,2.0642,2.0643,2.0644,2.0645,2.0696,2.0697,2.0698,2.0686,0,0,2.0702,2.0702,0,0,0,0,0,0,0,0,2.0517,2.0521,2.0566,2.057,2.0573,2.0612,2.0592,2.0625,2.0642,2.0617,2.0645,2.0646,2.0667,2.0671,2.0679,2.0689,2.0691,2.0702,2.0702,2.0703,2.0703,0,0,0,0,0,0,0,2.0514,2.0519,2.056,2.0567,2.0571,2.0584,2.059,2.0598,2.0636,2.0619,2.0623,2.0628,2.0669,2.0677,2.068,2.0692,2.0702,2.0703,2.0703,2.0704,2.0698,2.0698,0,0,0,0,0,0,2.0507,2.0516,2.0559,2.0562,2.0547,2.0584,2.0591,2.0598,2.0636,2.0643,2.0628,2.0631,2.0675,2.0679,2.0682,2.0673,2.0703,2.0704,2.0705,2.0699,2.0698,2.0697,0,0,0,0,0,0,2.0505,2.051,2.0556,2.054,2.0547,2.0584,2.0592,2.0599,2.0607,2.0643,2.0649,2.0629,2.0676,2.068,2.0686,2.0675,2.0705,2.0706,2.07,2.0699,2.0698,2.0653,0,0,0,0,0,0,2.0503,2.0509,2.0505,2.054,2.0548,2.0559,2.0591,2.0599,2.0609,2.0613,2.0645,2.0652,2.0677,2.0684,2.0687,2.0677,2.0707,2.0701,2.07,2.0698,2.0656,2.065,2.0646,0,0,0,0,0,2.0501,2.0489,2.0504,2.0509,2.0543,2.0558,2.0563,2.0593,2.0608,2.0604,2.0628,2.0651,2.0676,2.0684,2.0688,2.0679,2.0702,2.07,2.0698,2.0658,2.0651,2.0646,0,0,0,0,0,0,2.0451,2.0494,2.0511,2.051,2.053,2.0567,2.0562,2.0584,2.06,2.0603,2.0639,2.0646,2.0648,2.0664,2.0672,2.0671,2.0692,2.0691,2.066,2.0654,2.065,2.0646,2.0708,0,0,0,0,0,2.044,2.0448,2.0486,2.0481,2.0491,2.0525,2.0532,2.0554,2.0576,2.0584,2.0608,2.0628,2.0641,2.0649,2.0662,2.0658,2.0667,2.0654,2.0649,2.0645,2.0644,2.0645,2.064,2.0691,2.0691,2.0691,0,0,2.0416,2.0441,2.0444,2.0472,2.049,2.0499,2.0531,2.0539,2.0546,2.0585,2.0593,2.0611,2.0636,2.0637,2.0639,2.065,2.0632,2.0643,2.0639,2.064,2.0643,2.0638,2.0634,2.069,2.069,2.069,0,0,2.0379,2.0398,2.0397,2.0415,2.0443,2.0466,2.0466,2.05,2.0514,2.0522,2.0553,2.0562,2.0582,2.06,2.0611,2.0584,2.0606,2.0587,2.0561,2.0562,2.0559,2.0555,2.0547,2.0543,2.0585,2.0585,2.0585,0,2.0346,2.0361,2.0394,2.04,2.0412,2.045,2.045,2.0466,2.0496,2.0504,2.0517,2.0546,2.0565,2.0572,2.0566,2.0573,2.0575,2.0583,2.0556,2.0554,2.0551,2.0543,2.054,2.0583,2.0583,2.0583,2.0584,0,2.032,2.033,2.0326,2.0356,2.0368,2.0371,2.0405,2.0413,2.0434,2.0456,2.0465,2.049,2.0511,2.0514,2.0534,2.0525,2.0531,2.055,2.0572,2.0543,2.0537,2.0534,2.0579,2.058,2.0581,2.0582,0,0,2.025,2.0301,2.0299,2.0314,2.0349,2.0357,2.0363,2.0384,2.0391,2.0411,2.0417,2.0436,2.0454,2.0467,2.049,2.049,2.0469,2.0509,2.051,2.0502,2.0462,2.0449,2.0445,2.0484,2.0484,2.0483,2.0461,0,2.0219,2.0232,2.0263,2.0267,2.0277,2.0315,2.032,2.0342,2.0364,2.0376,2.04,2.0413,2.0435,2.0444,2.0446,2.0471,2.0462,2.0473,2.0491,2.0491,2.0484,2.0441,2.0426,2.0403,2.0458,2.0458,2.0458,0,2.0184,2.0204,2.0208,2.0245,2.025,2.0254,2.0278,2.0289,2.0316,2.0331,2.0348,2.0373,2.0383,2.0403,2.0417,2.0424,2.0434,2.0448,2.0447,2.045,2.0473,2.0444,2.0396,2.0393,2.0454,2.0454,2.0454,0,2.0134,2.0162,2.0169,2.018,2.0223,2.0225,2.0243,2.0271,2.0282,2.0303,2.0311,2.0332,2.0343,2.0359,2.039,2.0402,2.0401,2.0424,2.0415,2.0415,2.0413,2.0413,2.0367,2.0418,2.0418,2.0418,2.0418,0,2.0096,2.0098,2.0148,2.0152,2.0155,2.0192,2.0195,2.0216,2.0241,2.0251,2.0284,2.0292,2.0333,2.0346,2.0371,2.038,2.0384,2.0398,2.0404,2.0395,2.0393,2.0402,2.0404,2.0417,2.0417,2.0418,2.0418,0,2.0041,2.0074,2.0085,2.0125,2.0135,2.0136,2.0171,2.0177,2.0201,2.0213,2.0218,2.0257,2.0274,2.0308,2.0334,2.0351,2.0355,2.0365,2.0346,2.035,2.034,2.0341,2.0298,2.0296,2.0347,2.0346,2.0346,0,2.0015,2.0017,2.0059,2.0068,2.0085,2.0099,2.0112,2.0149,2.0161,2.0193,2.0196,2.0216,2.0235,2.0262,2.0292,2.0313,2.0325,2.0309,2.0329,2.032,2.0327,2.0326,2.0328,2.0305,2.0304,2.0303,2.0303,0,1.9965,1.9982,2.0,2.0023,2.0038,2.0058,2.008,2.0086,2.0128,2.014,2.0159,2.0174,2.0202,2.0223,2.0249,2.0268,2.0293,2.0297,2.0296,2.0287,2.0276,2.0283,2.0335,2.0298,2.0298,2.0298,2.0299,2.0299,1.9925,1.993,1.996,1.9979,2.0,2.002,2.0029,2.0055,2.0072,2.0099,2.012,2.0138,2.0167,2.0205,2.0223,2.0238,2.0249,2.0248,2.0248,2.0247,2.0244,2.0273,2.0243,2.0243,2.0243,2.0243,2.0243,0,1.9878,1.99,1.9917,1.9948,1.9963,1.9987,2.0013,2.0024,2.004,2.0065,2.0083,2.0107,2.0128,2.0161,2.0184,2.019,2.0203,2.0195,2.0196,2.02,2.0231,2.023,2.0185,2.0185,2.0185,2.0185,2.0185,2.0185,1.9856,1.9866,1.9887,1.9908,1.9931,1.9949,1.9963,1.9982,2.0003,2.0028,2.0046,2.0068,2.0097,2.0123,2.0144,2.0153,2.0161,2.015,2.0163,2.0192,2.0197,2.0202,2.0202,2.0151,2.0151,2.0131,2.0131,2.013]}]]